METEOSAT-10 (MSG-3)

Last updated on Sun Jun 21 2026 00:02:46 GMT+0000 (Coordinated Universal Time)

1 38552U 12035B 26171.03561044 -.00000013 00000+0 00000+0 0 9997 2 38552 4.6793 61.0121 0001484 2.4454 217.8971 1.00266543 50884
UTC large
Height (km)
Speed (km/s)
/
Latitude / Longitude
Inclination (degrees)
Orbital Period (minutes)
Azimuth
Elevation
Range (km)
Doppler Factor

Next 0 passes for location: London (51.5072 / 0.1276)

No passes found over London.
METEOSAT-10 (MSG-3)